Regional Weather Roundup
Issued by NWS

Home | Current Version | Previous Version | Graphics & Text | Print | Product List | Glossary On
Versions: 1 2 3 4 5 6 7 8 9 10 11 12 13 14 15 16 17 18 19 20 21 22 23 24 25 26 27 28 29 30 31 32 33 34 35 36 37 38 39 40 41 42 43 44 45 46 47 48 49 50
000
ASUS43 KIND 250709
RWRIN

WEATHER ROUNDUP FOR INDIANA
NATIONAL WEATHER SERVICE INDIANAPOLIS IN
300 AM EDT THU AUG 25 2016

NOTE: "FAIR" INDICATES FEW OR NO CLOUDS BELOW 12,000 FEET WITH NO
SIGNIFICANT WEATHER AND/OR OBSTRUCTIONS TO VISIBILITY.

* - STATION DOES NOT REPORT WEATHER SUCH AS PRECIPITATION OR FOG.

+ - STATION NOT QUALITY CONTROLLED BY THE NATIONAL WEATHER SERVICE.
    USE DATA WITH CAUTION...ESPECIALLY DEWPOINT AND RELATIVE
    HUMIDITY OBSERVATIONS.

INZ001>003-010>013-019-020-250800-
NORTHWEST INDIANA

CITY           SKY/WX    TMP DP  RH WIND       PRES   REMARKS
GARY /AIRPORT/ RAIN      75  72  89 SW3       29.99R
KNOX *+        CLOUDY    68  55  64 SW6       30.00R
LA PORTE +     CLOUDY   N/A N/A N/A SW6       30.01R
MICHIGAN CITY+ CLOUDY    72  72 100 MISG      30.00R
MONTICELLO +   PTCLDY    71  67  87 CALM      30.01R
RENSSELAER +   CLOUDY    70  70 100 CALM      30.02R
VALPARAISO     MOCLDY    72  69  90 SW7       30.02R

$$

LMZ046-743>745-250800-
SOUTHERN LAKE MICHIGAN

STATION/POSITION TIME  TEMP    WIND        PRES    WAVE
                       AIR SEA DIR/SP/G            HT
                 (UTC) (F)     (DEG/KT/KT) (MB)    (FT)
BURNS HARBOR     0611   76     200/ 10/ 15 1015.6S
MICHIGAN CITY    0600   76     180/  9/ 10   N/A
5NW MICH CITY    0600   75 74  220/  8/  8   N/A     1

$$

INZ004-005-014>016-021>024-250800-
NORTH CENTRAL INDIANA

CITY           SKY/WX    TMP DP  RH WIND       PRES   REMARKS
GOSHEN         CLEAR     71  67  87 CALM      30.00S
LOGANSPORT +   MOCLDY    68  68 100 SW3       30.03R
PERU/GRISSOM   PTCLDY    70  70 100 CALM      30.01S
ROCHESTER +    PTCLDY    73  72  94 W3        30.02R
SOUTH BEND     CLOUDY    70  69  97 S8        30.00R
WARSAW +       CLEAR     68  68 100 CALM      30.02R

$$

INZ006>009-017-018-025>027-250800-
NORTHEAST INDIANA

CITY           SKY/WX    TMP DP  RH WIND       PRES   REMARKS
ANGOLA *+      MOCLDY    73  66  78 CALM      30.00S
AUBURN +       CLEAR     72  68  88 W3        30.01F
FORT WAYNE     PTCLDY    69  67  93 SW3       30.01S
HUNTINGTON +   CLEAR    N/A N/A N/A SW3       30.01S

$$

INZ028-029-035-036-043>045-051>053-250800-
WEST CENTRAL INDIANA

CITY           SKY/WX    TMP DP  RH WIND       PRES   REMARKS
CRAWFORDSVL +  CLEAR     73  73 100 SW3       30.04R
GREENCASTLE +  CLEAR     73  73 100 CALM      30.05R
LAFAYETTE      FOG       70  70 100 CALM      30.02R VSB 3/4
TERRE HAUTE    PTCLDY    78  74  87 SW6       30.04R

$$

INZ030>032-037>040-046>048-054>057-064-065-250800-
CENTRAL INDIANA

CITY           SKY/WX    TMP DP  RH WIND       PRES   REMARKS
INDIANAPOLIS   CLOUDY    77  73  87 SW7       30.03S
-EAGLE CREEK   CLOUDY    77  74  90 CALM      30.03S
MARION +       FOG       71  71 100 CALM      30.03S VSB 1/2
MT COMFORT *+  CLOUDY    73  73 100 S3        30.04F
SHELBYVILLE    CLOUDY    77  73  87 S7        30.04S
ZIONSVILLE +   PTCLDY    74  74  98 SW6       30.04F

$$

INZ033-034-041-042-049-050-058-059-250800-
EAST CENTRAL INDIANA

CITY           SKY/WX    TMP DP  RH WIND       PRES   REMARKS
MUNCIE         LGT RAIN  77  74  90 SW5       30.04S

$$

INZ060-061-067>069-081>083-085>088-250800-
SOUTHWEST INDIANA

CITY           SKY/WX    TMP DP  RH WIND       PRES   REMARKS
EVANSVILLE     CLEAR     77  74  90 SW6       30.07S
HUNTINGBURG *+ CLEAR     77  72  83 S6        30.08S
WASHINGTON +   CLEAR     78  76  93 MISG      30.05S

$$

INZ062-063-066-070>080-084-089>092-250800-
SOUTH CENTRAL AND SOUTHEAST INDIANA

CITY           SKY/WX    TMP DP  RH WIND       PRES   REMARKS
BLOOMINGTON    CLEAR     78  73  84 SW9       30.06S
MADISON *+     PTCLDY    77  72  83 SW5       30.11S

$$





USA.gov is the U.S. government's official web portal to all federal, state and local government web resources and services.